This is the latest recevied weather packets stored in our database for station/object KE5BM-13. If no packets are shown the sender has not sent any weather packets the latest 10 day(s).
| Time | Temp. | Humidity | Pressure | Rain* | Wind** | Luminosity | Snow |
|---|---|---|---|---|---|---|---|
| 1777321336 | 15° C | 52% | 1022.5 hPa | 0 mm | - | - | - |
| 1777321037 | 15° C | 52% | 1022.4 hPa | 0 mm | - | - | - |
| 1777320737 | 15° C | 53% | 1022.5 hPa | 0 mm | - | - | - |
| 1777320435 | 15° C | 53% | 1022.4 hPa | 0 mm | - | - | - |
| 1777320134 | 15.56° C | 54% | 1022.4 hPa | 0 mm | - | - | - |
| 1777319833 | 15.56° C | 53% | 1022.4 hPa | 0 mm | - | - | - |
| 1777319533 | 15.56° C | 53% | 1022.4 hPa | 0 mm | - | - | - |
| 1777319234 | 15.56° C | 51% | 1022.5 hPa | 0 mm | - | - | - |
| 1777318933 | 16.11° C | 52% | 1022.5 hPa | 0 mm | - | - | - |
| 1777318634 | 15.56° C | 50% | 1022.5 hPa | 0 mm | - | - | - |
| 1777318334 | 15.56° C | 51% | 1022.4 hPa | 0 mm | - | - | - |
| 1777318031 | 16.67° C | 50% | 1022.5 hPa | 0 mm | - | - | - |
| 1777317729 | 16.67° C | 49% | 1022.6 hPa | 0 mm | - | - | - |
| 1777317428 | 15.56° C | 52% | 1022.6 hPa | 0 mm | - | - | - |
| 1777317127 | 15.56° C | 51% | 1022.6 hPa | 0 mm | - | - | - |
| 1777316827 | 15° C | 53% | 1022.7 hPa | 0 mm | - | - | - |
| 1777316526 | 15.56° C | 52% | 1022.7 hPa | 0 mm | - | - | - |
| 1777316224 | 15.56° C | 54% | 1022.8 hPa | 0 mm | - | - | - |
| 1777315923 | 15° C | 53% | 1022.8 hPa | 0 mm | - | - | - |
| 1777315624 | 15° C | 53% | 1022.8 hPa | 0 mm | - | - | - |
| 1777315322 | 15° C | 55% | 1022.8 hPa | 0 mm | - | - | - |
| 1777315023 | 15° C | 55% | 1022.8 hPa | 0 mm | - | - | - |
| 1777314724 | 15° C | 55% | 1022.9 hPa | 0 mm | - | - | - |
| 1777314423 | 15° C | 55% | 1022.9 hPa | 0 mm | - | - | - |
| 1777314123 | 15° C | 54% | 1023 hPa | 0 mm | - | - | - |
* Rain latest hour (hover to see other rain measurements)
** Current wind speed in m/s (hover to see current wind gust speed)